CAPE
724 1311 2535 2417 2387 2563 2493 2354 2345 2357 1897 1674 1613 2053 1397 1720 1654 1617 1693 1566 1645 1996 1602 1758 1878 1917 2124 2005 2276 2378 2506 2827 2469 2712 1907 2050 1958 1774 2348 2864 2993 2116 3330
722 1367 2692 2674 2553 2640 2667 2767 2852 2475 2392 1805 1784 1743 1669 1412 1399 1269 1234 1522 1381 1396 1351 1513 1760 2083 1911 2324 2169 2284 2290 2644 2634 2638 2406 1869 1761 1899 2335 1843 2591 2291 2776
836 1219 1827 2647 2821 2365 2525 2708 2658 2074 1978 1873 1613 1237 1436 1446 1443 1398 1312 1642 1249 1265 1419 1559 1688 1978 1652 1894 1887 2063 2082 2110 2205 2158 2338 1711 1608 1728 2361 2500 2261 2179 2306
605 835 1400 2599 2714 2627 2287 2579 2397 1786 1718 1758 1820 1535 1299 1466 1435 1432 1586 1386 1165 1239 1601 1682 2014 1821 1836 1922 1832 1784 1512 1458 1513 1633 457 102 173 1978 2390 2178 2483 2162 1994
199 481 1572 2855 2765 2177 2524 2376 2282 1927 1781 1664 1514 1499 1514 1465 1399 1453 1453 1171 1214 1456 1702 1738 1787 1663 1664 1347 1568 1351 1227 1194 1151 304 31 9 97 236 1990 2325 1976 1897 1953
282 455 2111 2451 1826 1869 1939 2284 1815 1980 1668 1720 1782 1687 1571 1391 1302 1237 1225 1362 1541 1684 1909 1976 1502 1464 1422 1415 1425 1281 796 1479 1034 360 2 13 25 118 1659 1893 2681 2511 2299
356 515 951 1779 1903 2010 1875 1531 1544 1853 1870 1831 1662 1850 1566 1582 1619 1441 1466 1618 1821 1675 1622 1738 1578 1372 1120 1206 1323 1293 1252 1392 1523 1414 0 0 114 904 1714 2204 2204 2133 2256
180 63 420 1332 1645 1574 1555 1491 1577 1832 1739 1762 1839 1789 1687 1505 1502 1562 1704 1773 1680 1736 1915 1428 1208 1138 1060 1121 1153 1118 1284 1140 1155 1187 996 1203 1719 2591 1671 2049 2047 2028 2244
91 242 382 332 1357 1457 1577 1556 1353 1533 1567 1772 1915 1638 1531 1533 1610 1642 1738 1775 1633 1549 1323 1136 1161 1245 1138 1209 1275 1047 999 1010 704 1012 1019 596 2551 2756 1961 1850 2158 1994 2116
581 338 506 666 906 1106 1379 1832 1261 1195 1458 1552 1785 1755 1705 1557 1626 1655 2139 2013 1739 1518 1218 1232 1194 1194 1484 1983 1817 1548 1209 1375 943 635 773 898 2509 2599 2000 1740 2118 2123 2051
524 849 587 581 1471 1748 1944 1570 1311 1175 1242 1571 1760 1725 1899 1488 1544 1264 2096 1970 1544 1278 1240 1304 1443 1854 2185 1929 2406 1691 975 912 720 413 910 1811 2291 1968 1983 2157 2039 2608 2707
466 1019 702 1277 1492 1984 1418 1475 1862 1218 1084 1442 1271 2073 1924 1889 1978 1394 1946 1992 1428 1417 1591 2136 1542 1122 676 721 1943 1234 625 1036 1202 641 622 2082 2273 1689 1638 1913 1913 2078 2505
408 430 1051 2227 1525 1616 1362 1565 1856 1352 1293 1825 2541 2074 1960 1092 1433 1425 1729 1011 1080 1475 1067 1555 1243 0 732 1115 1448 1034 598 70 230 564 717 1766 1928 1350 1226 1449 2048 1459 2130
1324 725 1278 1623 1823 1830 1537 1174 1668 1886 1744 1323 1658 2531 2142 2033 1115 690 862 168 648 1157 1158 1844 1298 1102 1705 1362 1520 1146 195 0 3 785 1017 1857 1827 1662 1428 1558 2068 1805 1614
1384 1198 1297 1657 2589 2726 2663 1171 1618 1364 1232 972 1775 1775 1621 911 1098 1197 1419 1344 1429 1558 1411 1306 249 942 1280 615 1814 1537 1072 161 752 938 732 1545 1390 1391 1346 1437 1818 1496 1605
981 1441 939 1723 2591 2240 2379 2104 2140 1360 947 1369 869 1057 1573 1025 1519 793 1501 646 1206 569 479 1031 1672 492 1 218 469 1676 1492 1737 1714 1839 996 969 1585 1553 1385 1296 1608 2028 2045
1176 1227 1252 959 1808 2466 2817 2356 2193 1659 1140 269 948 1661 1328 1578 1873 2547 1617 1123 1205 699 851 812 459 846 188 443 884 435 785 1862 2092 1969 1507 1166 1237 1747 2050 1962 2298 2407 2471
1164 1229 1447 630 1400 1503 1512 2231 1859 1450 930 978 1031 1225 1302 1553 1988 2346 1750 1563 3394 2655 1963 539 544 505 868 615 788 361 150 1851 2255 2234 1521 1098 1385 1115 1955 2299 2351 2506 2479
1093 1510 916 1459 1495 1395 2179 2239 2196 2253 1713 1783 2134 1050 1603 1499 1857 2464 2280 2497 780 419 337 11 1 232 1085 244 81 154 682 1388 675 1178 1977 1337 1854 1512 1136 1925 2510 2511 2311
1281 1494 1185 1611 2226 1956 2690 2702 2322 1388 2080 1760 1192 1874 1491 1423 1837 2495 2399 1703 2687 1844 2027 1549 2307 2219 2008 1307 767 659 750 319 1660 993 1148 137 1029 1943 1391 1192 2151 1905 2456
1352 1772 1318 2313 2416 1559 1859 1810 2045 1797 1738 1425 1181 2677 2156 2081 1830 3464 2659 2321 2681 2338 1432 2020 2443 2257 1812 2186 758 869 230 0 416 595 852 843 1089 1065 1725 1440 1368 1176 1391
1615 1651 1807 2455 2455 1729 1937 1895 1474 1867 2141 1875 857 1800 1707 1653 2518 2335 2753 886 2830 2659 1529 2713 3124 2996 2128 754 1992 348 280 0 79 556 661 1320 771 319 0 2292 2571 1664 1176
1745 1855 2474 2378 2868 2634 2273 1956 2408 2468 2335 1966 1618 1825 1983 1593 1821 2669 2942 2610 3049 2868 554 1125 2653 3254 2286 1693 1798 2125 833 331 446 315 605 967 1748 17 0 745 2155 2611 2276
2028 1995 2237 2531 2929 2560 2544 2247 2363 1437 1483 1446 1708 1863 1520 2129 2211 1746 2396 3523 3184 3088 3054 2889 2403 2641 2505 1576 1771 332 2330 2157 1456 1089 196 317 538 589 650 1754 871 2373 2470
1861 2169 2700 3096 3063 2639 2447 2299 2168 1595 1781 1916 1998 1380 1801 1972 2227 1826 2595 2818 3429 3283 2289 2417 1055 1075 2478 2273 2256 1078 1587 1438 2847 1817 544 313 26 668 1499 1185 1202 1988 2277
1587 1653 2342 3082 3291 2927 3165 2715 2148 1452 1651 2223 2057 2266 1975 1564 1865 2004 1867 2632 3060 2980 3089 2246 1665 1306 2559 2556 2666 1641 1511 1073 847 602 914 663 317 359 356 364 289 1446 2272
CIN
-39 -27 0 0 0 0 0 0 0 0 0 0 0 0 -2 0 0 0 0 0 0 0 0 0 0 0 0 -9 -8 -6 -3 0 -3 -6 -39 -34 -29 -32 -15 -6 -1 -4 0
-53 -16 0 0 0 0 0 0 0 0 0 0 0 0 0 0 0 0 -1 0 0 0 -2 -3 0 0 0 0 -1 0 -1 -1 -1 0 -1 -22 -26 -25 -7 -17 -1 -13 0
-40 -18 0 0 0 0 0 0 0 0 0 0 0 0 0 0 0 0 0 0 0 -1 0 -1 0 0 -7 -5 -9 -3 -4 -7 -4 -3 -2 -17 -11 -14 -6 -8 -17 -23 -2
-55 -29 -11 0 0 0 0 0 0 0 0 0 0 0 0 0 0 0 0 -1 -8 -4 0 0 0 0 -1 -1 -8 -13 -28 -26 -17 -9 -50 -192 -179 -3 0 -8 -15 -27 -22
-61 -39 -4 0 0 0 0 0 0 0 0 0 0 0 0 0 0 0 0 -5 -6 0 0 0 0 -5 -8 -21 -16 -21 -30 -28 -35 -102 -261 -44 -230 -101 -1 -2 -12 -18 -6
-21 -37 0 0 0 0 0 0 0 0 0 0 0 0 0 0 0 0 -1 0 0 0 0 0 -1 -10 -14 -22 -20 -21 -46 -22 -24 -34 -139 -187 -386 -181 -6 -4 0 -1 0
-38 -58 -29 0 0 0 -3 -2 -1 0 0 0 0 0 0 0 0 0 0 0 0 0 0 0 -4 -19 -27 -19 -14 -19 -31 -36 -20 -33 0 0 -301 -90 -8 -1 -7 -3 -3
-56 -69 -58 -6 -4 -9 -8 -4 0 0 0 0 0 0 0 0 0 0 0 0 0 0 0 -13 -27 -30 -34 -26 -23 -27 -34 -47 -19 -28 -24 -38 -45 -6 -23 -25 -20 -13 -2
-48 -75 -40 -37 -12 -12 -5 -5 -3 0 0 0 0 0 0 0 0 0 0 0 0 -3 -13 -25 -32 -34 -46 -40 -36 -59 -64 -45 -109 -84 -32 -71 -13 -2 -14 -6 0 -1 -2
-71 -91 -37 -33 -32 -26 -10 -1 -3 -5 0 -1 0 0 0 -1 -2 0 0 0 0 -3 -23 -30 -44 -43 -29 -27 -40 -61 -69 -51 -45 -78 -59 -70 -24 -7 -1 0 0 0 -2
-93 -53 -10 -20 -20 -21 -9 -7 -9 -2 -5 -1 -2 -12 -1 -3 -14 -20 0 -7 -14 -27 -29 -34 -41 -29 -6 -10 -23 -42 -50 -107 -23 -143 -59 -80 -38 -15 -4 -1 0 0 0
-86 -45 -12 -2 -10 -9 -1 -37 -6 -6 -13 -6 -17 -14 -9 -11 -9 -2 -11 -15 -32 -44 -40 -32 -9 -40 -125 -127 -33 -59 -162 -61 -98 -43 -129 -80 -51 -41 -26 -7 -6 -2 0
-129 -45 -5 -4 -12 -12 -21 -28 -5 -3 -3 -1 -3 -20 -18 -54 -33 -15 -34 -59 -73 -67 -57 -52 -62 0 -96 -93 -58 -133 -164 -77 -177 -45 -130 -113 -76 -63 -50 -32 -3 -15 0
-13 -4 -12 -5 -3 -10 -9 -49 -19 -20 -2 -21 -19 -11 -13 -10 -22 -28 -34 -73 -76 -37 -70 -36 -46 -125 -99 -113 -10 -56 -92 0 -50 -97 -138 -109 -93 -66 -51 -30 -3 -4 -6
-5 -7 -5 -7 -8 -7 -24 -83 -38 -54 -21 -41 -17 -10 -13 -28 -13 -6 -9 -15 -18 -24 -26 -100 -303 -178 -92 -173 -10 -13 -71 -259 -167 -97 -168 -106 -109 -89 -69 -43 -12 -24 -13
-7 -3 0 -7 -9 -9 -17 -37 -36 -35 -40 -20 -49 -19 -18 -27 -11 -11 -6 -32 -26 -231 -212 -115 -84 -192 -74 -164 -196 -40 -10 -24 -28 -16 -171 -155 -99 -96 -81 -62 -28 -4 -2
-3 -13 -5 -33 -9 -9 -14 -6 -5 -48 -19 -133 -51 -23 -14 -13 -8 -19 -19 -49 -27 -180 -210 -123 -202 -162 -177 -101 -1 -223 -180 -12 -26 -27 -26 -136 -123 -82 -68 -56 -15 0 0
-3 -28 -16 -21 -5 -10 -13 -9 -8 -36 -37 -58 -49 -30 -23 -5 -4 -19 -44 -22 -15 -13 -58 -235 -207 -169 -112 -151 -211 -305 -424 -25 -38 -15 -100 -222 -109 -93 -76 -47 -34 -3 0
-15 -15 -37 -24 -10 -17 -21 -11 -5 -4 -20 -44 -25 -21 -25 -10 -9 -19 -22 -32 -46 -76 -208 -129 -141 -170 -46 -223 -306 -323 -238 -107 -284 -106 -20 -116 -50 -67 -137 -94 -46 -34 -20
-17 -31 -36 -6 -26 -26 -24 -8 -6 -33 -17 -47 -36 -6 -25 -10 -8 -16 -14 -49 -21 -75 -65 -103 -59 -41 -37 -55 -37 -63 -37 -193 -64 -127 -100 -303 -125 -69 -87 -127 -84 -77 -32
-11 -18 -31 -15 -54 -52 -27 -15 -20 -14 -27 -41 -59 -17 -26 -10 -7 -4 -10 -34 -13 -58 -72 -14 -16 -27 -39 -35 -128 -143 -297 -1 -188 -131 -200 -220 -144 -69 -70 -131 -128 -145 -109
-9 -22 -32 -13 -45 -49 -28 -13 -28 -8 -12 -27 -52 -40 -43 -14 -7 -8 -4 -104 -17 -31 -105 -32 -17 -20 -32 -90 -22 -200 -159 0 -284 -153 -128 -76 -106 -259 0 -40 -46 -113 -135
-21 -34 -22 -35 -20 -6 -19 -19 -22 -14 -17 -30 -38 -35 -9 -25 -10 -4 -4 -19 -11 -22 -173 -131 -18 -7 -21 -36 -24 -30 -96 -93 -109 -251 -133 -112 -53 -136 0 -216 -42 -54 -59
-29 -44 -31 -24 -16 -15 -16 -25 -7 -5 -7 -5 -8 -17 -35 -9 -4 -4 -8 -4 -2 -22 -10 -21 -13 -16 -24 -38 -48 -63 -16 -42 -38 -51 -183 -163 -162 -114 -181 -43 -197 -37 -63
-7 -16 -3 -4 -10 -16 -13 -20 -10 -19 -4 -4 -21 -67 -46 -22 -8 -3 -5 -8 -2 -9 -32 -16 -125 -143 -22 -31 -20 -16 -38 -35 -23 -31 -42 -143 -131 -103 -24 -45 -135 -60 -48
-8 -6 -4 -17 -8 -13 -2 -13 -16 -43 -52 -18 -17 -19 -15 -45 -13 -7 -4 -10 -10 -14 -11 -21 -65 -84 -16 -21 -26 -60 -49 -40 -34 -59 -38 -51 -40 -63 -65 -59 -80 -75 -81
Wind_Speed
16 16 15 14 14 13 13 12 13 13 13 12 12 12 12 11 12 11 11 10 9 9 7 5 5 5 7 7 7 9 9 10 10 11 12 13 12 10 8 11 16 14 14
20 17 17 16 15 14 14 14 13 13 13 12 12 11 12 10 9 9 8 7 7 7 6 6 5 6 7 7 7 6 7 7 8 9 11 10 9 9 6 6 9 13 13
21 18 16 15 16 14 13 14 14 14 13 12 12 11 10 9 8 7 6 5 5 5 5 5 6 6 6 6 7 7 6 4 4 8 10 5 3 7 9 14 19 16 12
20 18 17 15 15 15 13 13 14 12 12 11 11 12 11 9 8 7 6 4 3 4 5 5 7 6 6 6 7 9 4 2 1 0 12 10 9 5 8 13 14 15 13
19 18 17 15 15 14 14 12 12 12 11 10 11 10 10 9 8 7 5 3 3 4 5 6 7 5 5 4 6 5 2 4 4 20 19 14 13 6 7 12 13 13 13
21 20 17 16 15 14 13 12 12 12 11 11 9 9 9 9 8 7 5 5 5 5 7 7 6 4 3 3 3 3 6 7 2 15 16 19 12 12 9 9 14 13 12
17 20 16 15 13 12 12 11 12 11 12 10 9 10 10 8 7 7 7 7 7 7 7 6 5 3 3 4 4 6 8 10 5 7 17 13 6 15 13 10 12 12 10
20 19 14 13 13 11 11 11 11 10 10 10 9 8 9 8 8 8 8 9 8 7 6 5 4 3 4 4 5 4 7 8 11 7 12 11 14 14 12 8 9 10 11
20 16 12 12 11 11 10 10 9 10 10 9 10 9 9 8 9 9 9 9 9 7 6 4 3 4 4 5 6 6 7 2 8 5 13 8 13 12 12 10 10 11 11
15 14 13 11 10 8 8 10 9 9 10 10 10 10 9 10 10 10 10 9 8 6 6 6 6 6 9 9 9 10 8 8 7 8 4 10 17 16 13 12 11 11 10
9 6 8 15 11 8 9 8 9 9 10 10 9 10 8 8 10 12 9 11 9 9 9 9 8 8 10 12 10 9 8 3 5 5 2 18 18 16 14 14 11 9 10
11 9 5 11 9 8 9 9 7 8 8 7 7 8 6 4 7 10 10 10 10 11 11 11 1 9 15 6 6 3 5 7 9 8 6 17 17 16 14 12 11 10 10
13 9 10 4 9 8 8 7 5 5 6 4 5 6 8 7 4 6 6 6 6 11 6 9 8 6 13 10 6 9 2 11 4 3 10 18 17 16 14 12 10 8 9
13 14 9 11 9 9 6 5 4 4 4 4 7 6 3 3 5 4 6 8 7 5 8 7 1 10 10 12 9 11 19 9 6 3 8 16 16 15 15 14 12 11 9
16 13 15 12 7 3 3 6 4 4 3 4 6 7 4 5 3 1 2 2 3 2 3 9 7 8 11 17 8 7 13 17 10 4 4 13 13 12 13 13 13 13 11
14 15 13 13 11 6 3 8 3 3 3 6 5 5 6 4 2 3 2 4 4 9 12 8 7 7 13 10 10 13 7 6 5 6 7 8 11 12 12 12 12 12 12
10 12 10 9 14 9 5 5 4 3 5 1 2 6 3 4 3 4 4 5 5 9 10 1 8 6 13 4 5 8 12 3 5 2 5 5 7 13 14 13 13 12 12
15 12 11 9 15 11 5 5 5 4 3 7 3 7 5 4 5 4 5 4 3 1 8 5 4 4 8 8 11 6 4 4 6 4 7 6 8 7 11 13 13 12 13
14 13 10 8 12 13 7 5 5 3 3 3 1 6 6 5 7 5 4 2 2 3 3 1 4 5 3 5 4 4 2 6 16 7 2 5 10 10 7 13 14 14 16
17 12 12 11 9 10 8 6 4 4 2 3 4 2 7 5 7 5 2 6 2 6 7 4 5 4 5 5 8 4 5 10 6 9 9 6 6 8 8 8 7 8 15
20 18 13 10 10 8 7 6 2 3 3 3 3 7 7 5 5 5 3 6 1 4 5 2 3 6 7 4 5 4 4 9 6 2 7 8 5 5 11 9 7 5 7
17 16 13 12 12 10 7 7 5 5 3 3 3 5 7 5 4 6 2 5 6 4 5 6 2 3 3 4 1 4 4 7 5 6 8 7 13 6 12 4 8 9 7
20 17 13 12 12 11 11 7 4 4 3 1 3 4 6 6 6 5 2 4 4 2 4 7 5 3 2 4 3 2 3 2 3 5 7 5 4 5 9 10 3 9 9
20 19 18 16 14 12 10 7 8 8 7 6 6 5 4 8 7 7 5 5 3 3 1 5 5 5 4 4 3 4 0 5 4 1 3 2 6 11 11 8 9 6 5
17 19 18 17 15 13 13 9 8 7 7 6 4 7 6 8 8 8 7 6 4 4 5 3 7 12 5 5 4 3 4 1 2 1 2 4 5 3 5 5 7 6 5
15 15 14 16 15 14 13 13 10 10 9 6 7 6 6 7 8 9 9 6 5 5 5 2 7 16 4 4 4 5 4 5 2 1 2 4 3 3 1 2 3 7 5
Wind_Direction
130 128 126 125 120 115 110 116 129 124 122 123 115 109 106 100 95 95 94 88 81 75 77 94 85 73 70 72 73 74 83 88 94 102 101 104 108 115 121 120 100 90 85
130 132 132 129 122 115 110 107 127 124 125 129 125 124 122 114 107 102 101 94 82 73 75 90 94 82 77 82 72 93 99 106 121 117 116 112 120 121 102 94 90 101 94
130 132 133 129 122 116 115 111 115 127 124 130 129 137 135 130 125 119 112 107 85 72 76 97 105 96 94 97 97 84 71 118 139 139 115 32 91 116 101 106 112 113 110
135 140 134 130 126 123 119 120 121 125 124 126 129 140 145 143 140 135 129 113 80 86 98 107 103 99 104 91 90 90 80 3 326 135 85 22 319 142 115 118 123 123 123
140 132 127 129 127 129 124 122 122 126 130 130 138 138 141 144 150 152 143 133 134 128 118 112 104 98 95 104 110 108 237 269 290 93 130 177 234 257 141 130 132 133 149
136 124 132 132 129 131 123 121 124 123 125 129 131 137 145 157 164 162 154 156 154 149 135 119 111 111 112 117 135 192 254 263 2 125 150 189 201 204 179 169 148 141 141
109 124 133 132 133 129 119 123 124 131 130 129 128 137 136 144 154 151 159 156 158 149 134 131 123 137 164 169 191 215 251 265 241 223 173 174 179 190 162 169 138 141 150
125 127 134 138 136 129 126 125 129 140 131 135 136 123 133 134 138 150 156 163 150 150 149 154 157 180 210 198 193 202 236 287 346 306 140 160 155 151 156 145 149 151 157
120 126 144 148 136 129 135 128 137 139 137 140 132 136 138 141 146 152 155 160 165 165 175 192 199 232 236 231 217 217 240 255 192 273 128 132 145 147 154 164 167 168 166
123 142 146 144 146 151 150 139 145 144 144 143 145 151 156 161 166 165 170 173 174 180 201 225 240 256 264 250 238 226 240 267 249 159 272 139 149 156 160 169 172 175 173
125 128 159 144 148 186 135 145 149 157 154 155 158 173 180 193 185 164 179 167 186 204 218 231 244 266 283 275 262 264 266 249 320 324 146 150 151 155 163 171 181 186 184
143 151 193 138 152 181 152 152 169 167 171 188 182 173 214 255 191 165 165 185 201 221 231 241 324 322 278 276 217 352 263 241 219 189 136 156 151 157 166 175 183 191 197
153 164 164 153 154 184 151 168 177 175 163 175 154 200 174 199 185 171 164 197 209 223 232 214 181 239 226 235 230 183 163 348 345 165 158 159 155 162 172 182 192 200 198
176 169 160 164 183 192 170 135 182 125 157 165 179 229 231 212 222 232 169 195 204 203 215 209 349 231 242 238 222 206 132 192 247 234 166 162 159 167 174 186 192 196 206
157 173 173 173 182 191 271 142 138 165 180 221 179 196 200 258 214 329 314 314 216 178 318 100 227 242 36 345 295 259 157 179 201 163 155 164 160 173 183 188 194 195 202
180 171 192 172 170 157 183 132 156 161 177 174 194 207 160 258 206 185 219 257 253 81 319 275 206 166 81 300 357 306 291 142 128 141 153 160 172 175 191 202 204 204 205
185 180 176 197 156 158 138 142 163 199 153 263 174 121 176 274 211 332 252 246 252 155 202 71 307 82 136 180 217 300 295 114 125 193 88 137 170 192 187 194 203 206 209
186 174 173 218 153 159 180 171 190 208 147 199 165 146 197 255 261 238 281 263 320 266 46 32 313 278 160 176 185 224 267 228 74 152 150 182 163 193 199 198 196 205 209
173 169 181 191 165 160 185 175 196 229 166 171 313 150 181 223 252 261 302 257 80 7 122 144 305 306 307 187 222 237 189 118 147 265 309 203 187 161 172 195 202 202 207
176 178 189 172 151 158 166 170 199 199 152 177 186 188 178 204 245 234 246 283 311 58 341 133 228 314 305 301 39 339 10 41 22 61 323 321 258 156 164 179 194 210 207
174 172 189 156 152 152 152 180 193 221 177 194 205 153 179 221 228 254 274 329 273 103 258 12 334 318 308 15 50 3 12 34 58 78 219 225 292 156 164 178 188 197 201
170 177 176 169 157 162 171 186 192 206 202 190 191 175 169 218 244 254 161 273 295 71 22 322 7 304 325 325 323 88 62 356 354 288 296 267 153 71 353 241 182 196 187
172 180 176 167 167 181 169 182 198 194 209 167 202 177 178 184 235 261 258 252 308 64 136 261 254 277 306 291 5 109 120 138 213 301 271 305 148 103 205 249 197 174 188
170 176 180 177 175 179 188 190 177 189 202 204 181 193 193 189 214 235 244 264 227 300 314 249 354 325 314 331 349 19 53 178 195 228 312 245 266 180 208 182 156 207 201
171 179 175 176 173 181 193 199 184 195 209 208 175 185 203 191 199 221 222 239 231 247 262 8 54 344 304 314 357 349 257 297 239 2 288 232 294 187 195 175 190 173 177
179 172 170 174 180 185 188 185 184 193 227 215 214 179 210 181 196 211 229 219 226 245 272 75 144 215 283 317 349 329 333 333 354 277 330 340 333 293 64 100 3 151 165